owner,sensor,date,latitude,longitude,sea_surface_height_above_sea_level,qcFlag 
TCOON,ioos:station:TCOON:013:1,2016-01-04T14:18:00Z,27.4847,-97.3181,0.88,1111122 
TCOON,ioos:station:TCOON:013:1,2016-01-04T15:18:00Z,27.4847,-97.3181,0.87,1111122 
TCOON,ioos:station:TCOON:013:1,2016-01-04T16:18:00Z,27.4847,-97.3181,1.179,1111122 
TCOON,ioos:station:TCOON:013:1,2016-01-04T17:18:00Z,27.4847,-97.3181,0.857,1111122 
TCOON,ioos:station:TCOON:013:1,2016-01-04T18:18:00Z,27.4847,-97.3181,0.846,1111122 
TCOON,ioos:station:TCOON:013:1,2016-01-04T19:18:00Z,27.4847,-97.3181,0.84,1111122 
TCOON,ioos:station:TCOON:013:1,2016-01-04T21:30:00Z,27.4847,-97.3181,0.821,1111122 
TCOON,ioos:station:TCOON:013:1,2016-01-04T22:12:00Z,27.4847,-97.3181,0.819,1111122 
TCOON,ioos:station:TCOON:013:1,2016-01-05T16:18:00Z,27.4847,-97.3181,1.026,1111122 
TCOON,ioos:station:TCOON:013:1,2016-01-06T15:18:00Z,27.4847,-97.3181,0.892,1111122 
TCOON,ioos:station:TCOON:013:1,2016-01-06T16:18:00Z,27.4847,-97.3181,0.876,1111122 
TCOON,ioos:station:TCOON:013:1,2016-01-06T17:18:00Z,27.4847,-97.3181,0.865,1111122 
TCOON,ioos:station:TCOON:013:1,2016-01-06T18:18:00Z,27.4847,-97.3181,0.86,1111122 
TCOON,ioos:station:TCOON:013:1,2016-01-06T19:18:00Z,27.4847,-97.3181,0.859,1111122 
TCOON,ioos:station:TCOON:013:1,2016-01-06T20:18:00Z,27.4847,-97.3181,0.859,1111122 
TCOON,ioos:station:TCOON:013:1,2016-01-06T21:18:00Z,27.4847,-97.3181,0.864,1111122 
TCOON,ioos:station:TCOON:013:1,2016-01-06T22:12:00Z,27.4847,-97.3181,0.863,1111122 
TCOON,ioos:station:TCOON:013:1,2016-01-06T23:18:00Z,27.4847,-97.3181,0.873,1111122 
TCOON,ioos:station:TCOON:013:1,2016-01-07T19:30:00Z,27.4847,-97.3181,0.874,1111122 
TCOON,ioos:station:TCOON:013:1,2016-01-07T21:00:00Z,27.4847,-97.3181,0.876,1111122 
TCOON,ioos:station:TCOON:013:1,2016-01-07T21:18:00Z,27.4847,-97.3181,0.875,1111122 
TCOON,ioos:station:TCOON:013:1,2016-01-07T22:18:00Z,27.4847,-97.3181,0.88,1111122 
TCOON,ioos:station:TCOON:013:1,2016-01-07T23:18:00Z,27.4847,-97.3181,0.89,1111122 
TCOON,ioos:station:TCOON:013:1,2016-01-09T13:54:00Z,27.4847,-97.3181,1.04,1111122 
TCOON,ioos:station:TCOON:013:1,2016-01-09T14:18:00Z,27.4847,-97.3181,0.93,1111122 
TCOON,ioos:station:TCOON:013:1,2016-01-09T15:18:00Z,27.4847,-97.3181,0.915,1111122 
TCOON,ioos:station:TCOON:013:1,2016-01-09T16:18:00Z,27.4847,-97.3181,0.904,1111122 
TCOON,ioos:station:TCOON:013:1,2016-01-09T17:18:00Z,27.4847,-97.3181,0.897,1111122 
TCOON,ioos:station:TCOON:013:1,2016-01-09T18:24:00Z,27.4847,-97.3181,0.88,1111122 
TCOON,ioos:station:TCOON:013:1,2016-01-09T19:18:00Z,27.4847,-97.3181,0.878,1111122 
TCOON,ioos:station:TCOON:013:1,2016-01-09T20:18:00Z,27.4847,-97.3181,0.866,1111122 
TCOON,ioos:station:TCOON:013:1,2016-01-09T21:18:00Z,27.4847,-97.3181,0.853,1111122 
TCOON,ioos:station:TCOON:013:1,2016-01-09T22:18:00Z,27.4847,-97.3181,0.844,1111122 
TCOON,ioos:station:TCOON:013:1,2016-01-09T23:18:00Z,27.4847,-97.3181,0.836,1111122 
TCOON,ioos:station:TCOON:013:1,2016-01-10T00:18:00Z,27.4847,-97.3181,0.837,1111122 
TCOON,ioos:station:TCOON:013:1,2016-01-10T01:18:00Z,27.4847,-97.3181,0.837,1111122 
TCOON,ioos:station:TCOON:013:1,2016-01-10T02:18:00Z,27.4847,-97.3181,0.851,1111122 
TCOON,ioos:station:TCOON:013:1,2016-01-10T03:18:00Z,27.4847,-97.3181,0.854,1111122 
TCOON,ioos:station:TCOON:013:1,2016-01-10T04:18:00Z,27.4847,-97.3181,0.86,1111122 
TCOON,ioos:station:TCOON:013:1,2016-01-10T05:18:00Z,27.4847,-97.3181,0.848,1111122 
TCOON,ioos:station:TCOON:013:1,2016-01-10T06:18:00Z,27.4847,-97.3181,0.863,1111122 
TCOON,ioos:station:TCOON:013:1,2016-01-10T07:18:00Z,27.4847,-97.3181,0.866,1111122 
TCOON,ioos:station:TCOON:013:1,2016-01-10T08:18:00Z,27.4847,-97.3181,0.866,1111122 
TCOON,ioos:station:TCOON:013:1,2016-01-10T09:24:00Z,27.4847,-97.3181,0.88,1111122 
TCOON,ioos:station:TCOON:013:1,2016-01-10T10:18:00Z,27.4847,-97.3181,0.89,1111122 
TCOON,ioos:station:TCOON:013:1,2016-01-10T13:48:00Z,27.4847,-97.3181,0.889,1111122 
TCOON,ioos:station:TCOON:013:1,2016-01-10T14:18:00Z,27.4847,-97.3181,0.882,1111122 
TCOON,ioos:station:TCOON:013:1,2016-01-10T15:18:00Z,27.4847,-97.3181,0.878,1111122 
TCOON,ioos:station:TCOON:013:1,2016-01-10T16:18:00Z,27.4847,-97.3181,0.877,1111122 
TCOON,ioos:station:TCOON:013:1,2016-01-10T17:24:00Z,27.4847,-97.3181,0.864,1111122 
TCOON,ioos:station:TCOON:013:1,2016-01-10T18:24:00Z,27.4847,-97.3181,0.846,1111122 
TCOON,ioos:station:TCOON:013:1,2016-01-10T19:24:00Z,27.4847,-97.3181,0.832,1111122 
TCOON,ioos:station:TCOON:013:1,2016-01-10T20:24:00Z,27.4847,-97.3181,0.822,1111122 
TCOON,ioos:station:TCOON:013:1,2016-01-10T21:18:00Z,27.4847,-97.3181,0.813,1111122 
TCOON,ioos:station:TCOON:013:1,2016-01-10T22:18:00Z,27.4847,-97.3181,0.803,1111122 
TCOON,ioos:station:TCOON:013:1,2016-01-10T23:18:00Z,27.4847,-97.3181,0.799,1111122 
TCOON,ioos:station:TCOON:013:1,2016-01-11T00:18:00Z,27.4847,-97.3181,0.791,1111122 
TCOON,ioos:station:TCOON:013:1,2016-01-11T01:18:00Z,27.4847,-97.3181,0.791,1111122 
TCOON,ioos:station:TCOON:013:1,2016-01-11T02:18:00Z,27.4847,-97.3181,0.797,1111122 
TCOON,ioos:station:TCOON:013:1,2016-01-11T03:24:00Z,27.4847,-97.3181,0.797,1111122 
TCOON,ioos:station:TCOON:013:1,2016-01-11T04:18:00Z,27.4847,-97.3181,0.8,1111122 
TCOON,ioos:station:TCOON:013:1,2016-01-11T05:18:00Z,27.4847,-97.3181,0.809,1111122 
TCOON,ioos:station:TCOON:013:1,2016-01-11T06:18:00Z,27.4847,-97.3181,0.819,1111122 
TCOON,ioos:station:TCOON:013:1,2016-01-11T07:18:00Z,27.4847,-97.3181,0.793,1111122 
TCOON,ioos:station:TCOON:013:1,2016-01-11T08:30:00Z,27.4847,-97.3181,0.837,1111122 
TCOON,ioos:station:TCOON:013:1,2016-01-11T09:24:00Z,27.4847,-97.3181,0.841,1111122 
TCOON,ioos:station:TCOON:013:1,2016-01-11T10:12:00Z,27.4847,-97.3181,0.846,1111122 
TCOON,ioos:station:TCOON:013:1,2016-01-11T11:18:00Z,27.4847,-97.3181,0.849,1111122 
TCOON,ioos:station:TCOON:013:1,2016-01-11T12:12:00Z,27.4847,-97.3181,0.851,1111122 
TCOON,ioos:station:TCOON:013:1,2016-01-11T13:18:00Z,27.4847,-97.3181,0.847,1111122 
TCOON,ioos:station:TCOON:013:1,2016-01-11T14:18:00Z,27.4847,-97.3181,0.843,1111122 
TCOON,ioos:station:TCOON:013:1,2016-01-11T15:18:00Z,27.4847,-97.3181,0.838,1111122 
TCOON,ioos:station:TCOON:013:1,2016-01-11T16:18:00Z,27.4847,-97.3181,0.831,1111122 
TCOON,ioos:station:TCOON:013:1,2016-01-11T17:18:00Z,27.4847,-97.3181,0.822,1111122 
TCOON,ioos:station:TCOON:013:1,2016-01-11T18:18:00Z,27.4847,-97.3181,0.811,1111122 
TCOON,ioos:station:TCOON:013:1,2016-01-11T19:18:00Z,27.4847,-97.3181,0.8,1111122 
TCOON,ioos:station:TCOON:013:1,2016-01-11T20:18:00Z,27.4847,-97.3181,0.789,1111122 
TCOON,ioos:station:TCOON:013:1,2016-01-11T21:24:00Z,27.4847,-97.3181,0.775,1111122 
TCOON,ioos:station:TCOON:013:1,2016-01-11T22:18:00Z,27.4847,-97.3181,0.773,1111122 
TCOON,ioos:station:TCOON:013:1,2016-01-11T23:18:00Z,27.4847,-97.3181,0.766,1111122 
TCOON,ioos:station:TCOON:013:1,2016-01-12T00:30:00Z,27.4847,-97.3181,0.771,1111122 
TCOON,ioos:station:TCOON:013:1,2016-01-12T01:18:00Z,27.4847,-97.3181,0.776,1111122 
TCOON,ioos:station:TCOON:013:1,2016-01-12T14:36:00Z,27.4847,-97.3181,1.306,1111122 
TCOON,ioos:station:TCOON:013:1,2016-01-12T15:30:00Z,27.4847,-97.3181,0.881,1111122 
TCOON,ioos:station:TCOON:013:1,2016-01-12T17:12:00Z,27.4847,-97.3181,0.869,1111122 
TCOON,ioos:station:TCOON:013:1,2016-01-12T18:48:00Z,27.4847,-97.3181,0.85,1111122 
TCOON,ioos:station:TCOON:013:1,2016-01-12T19:48:00Z,27.4847,-97.3181,0.841,1111122 
TCOON,ioos:station:TCOON:013:1,2016-01-13T00:30:00Z,27.4847,-97.3181,0.802,1111122 
TCOON,ioos:station:TCOON:013:1,2016-01-13T01:42:00Z,27.4847,-97.3181,0.801,1111122 
TCOON,ioos:station:TCOON:013:1,2016-01-13T03:18:00Z,27.4847,-97.3181,0.808,1111122 
TCOON,ioos:station:TCOON:013:1,2016-01-13T04:24:00Z,27.4847,-97.3181,0.815,1111122 
TCOON,ioos:station:TCOON:013:1,2016-01-13T05:18:00Z,27.4847,-97.3181,0.822,1111122 
TCOON,ioos:station:TCOON:013:1,2016-01-13T06:24:00Z,27.4847,-97.3181,0.831,1111122 
TCOON,ioos:station:TCOON:013:1,2016-01-13T07:18:00Z,27.4847,-97.3181,0.838,1111122 
TCOON,ioos:station:TCOON:013:1,2016-01-13T08:24:00Z,27.4847,-97.3181,0.845,1111122 
TCOON,ioos:station:TCOON:013:1,2016-01-13T09:24:00Z,27.4847,-97.3181,0.849,1111122 
TCOON,ioos:station:TCOON:013:1,2016-01-13T10:18:00Z,27.4847,-97.3181,0.85,1111122 
TCOON,ioos:station:TCOON:013:1,2016-01-13T11:30:00Z,27.4847,-97.3181,0.85,1111122 
TCOON,ioos:station:TCOON:013:1,2016-01-13T12:36:00Z,27.4847,-97.3181,0.849,1111122 
TCOON,ioos:station:TCOON:013:1,2016-01-13T13:30:00Z,27.4847,-97.3181,0.849,1111122 
TCOON,ioos:station:TCOON:013:1,2016-01-13T14:24:00Z,27.4847,-97.3181,0.839,1111122 
TCOON,ioos:station:TCOON:013:1,2016-01-13T15:18:00Z,27.4847,-97.3181,0.838,1111122 
TCOON,ioos:station:TCOON:013:1,2016-01-13T17:12:00Z,27.4847,-97.3181,0.828,1111122 
TCOON,ioos:station:TCOON:013:1,2016-01-13T18:18:00Z,27.4847,-97.3181,0.817,1111122 
TCOON,ioos:station:TCOON:013:1,2016-01-13T19:18:00Z,27.4847,-97.3181,0.81,1111122 
TCOON,ioos:station:TCOON:013:1,2016-01-13T20:18:00Z,27.4847,-97.3181,0.804,1111122 
TCOON,ioos:station:TCOON:013:1,2016-01-13T21:18:00Z,27.4847,-97.3181,0.803,1111122 
TCOON,ioos:station:TCOON:013:1,2016-01-13T22:24:00Z,27.4847,-97.3181,0.801,1111122 
TCOON,ioos:station:TCOON:013:1,2016-01-13T23:42:00Z,27.4847,-97.3181,0.786,1111122 
TCOON,ioos:station:TCOON:013:1,2016-01-14T00:30:00Z,27.4847,-97.3181,0.789,1111122 
TCOON,ioos:station:TCOON:013:1,2016-01-14T01:18:00Z,27.4847,-97.3181,0.798,1111122 
TCOON,ioos:station:TCOON:013:1,2016-01-14T02:18:00Z,27.4847,-97.3181,0.799,1111122 
TCOON,ioos:station:TCOON:013:1,2016-01-14T03:18:00Z,27.4847,-97.3181,0.8,1111122 
TCOON,ioos:station:TCOON:013:1,2016-01-14T04:18:00Z,27.4847,-97.3181,0.803,1111122 
TCOON,ioos:station:TCOON:013:1,2016-01-14T05:18:00Z,27.4847,-97.3181,0.811,1111122 
TCOON,ioos:station:TCOON:013:1,2016-01-14T06:18:00Z,27.4847,-97.3181,0.818,1111122 
TCOON,ioos:station:TCOON:013:1,2016-01-14T07:18:00Z,27.4847,-97.3181,0.822,1111122 
TCOON,ioos:station:TCOON:013:1,2016-01-14T08:18:00Z,27.4847,-97.3181,0.825,1111122 
TCOON,ioos:station:TCOON:013:1,2016-01-14T09:36:00Z,27.4847,-97.3181,0.831,1111122 
TCOON,ioos:station:TCOON:013:1,2016-01-14T10:18:00Z,27.4847,-97.3181,0.832,1111122 
TCOON,ioos:station:TCOON:013:1,2016-01-14T11:18:00Z,27.4847,-97.3181,0.834,1111122 
TCOON,ioos:station:TCOON:013:1,2016-01-14T12:18:00Z,27.4847,-97.3181,0.838,1111122 
TCOON,ioos:station:TCOON:013:1,2016-01-14T13:18:00Z,27.4847,-97.3181,0.839,1111122 
TCOON,ioos:station:TCOON:013:1,2016-01-14T14:18:00Z,27.4847,-97.3181,0.842,1111122 
TCOON,ioos:station:TCOON:013:1,2016-01-14T15:18:00Z,27.4847,-97.3181,0.84,1111122 
TCOON,ioos:station:TCOON:013:1,2016-01-14T16:18:00Z,27.4847,-97.3181,0.842,1111122 
TCOON,ioos:station:TCOON:013:1,2016-01-14T17:18:00Z,27.4847,-97.3181,0.844,1111122 
TCOON,ioos:station:TCOON:013:1,2016-01-14T18:18:00Z,27.4847,-97.3181,0.84,1111122 
TCOON,ioos:station:TCOON:013:1,2016-01-14T19:18:00Z,27.4847,-97.3181,0.84,1111122 
TCOON,ioos:station:TCOON:013:1,2016-01-14T20:18:00Z,27.4847,-97.3181,0.837,1111122 
TCOON,ioos:station:TCOON:013:1,2016-01-14T21:18:00Z,27.4847,-97.3181,0.833,1111122 
TCOON,ioos:station:TCOON:013:1,2016-01-14T22:18:00Z,27.4847,-97.3181,0.824,1111122 
TCOON,ioos:station:TCOON:013:1,2016-01-14T23:18:00Z,27.4847,-97.3181,0.826,1111122 
TCOON,ioos:station:TCOON:013:1,2016-01-15T00:18:00Z,27.4847,-97.3181,0.825,1111122 
TCOON,ioos:station:TCOON:013:1,2016-01-15T01:18:00Z,27.4847,-97.3181,0.828,1111122 
TCOON,ioos:station:TCOON:013:1,2016-01-15T02:18:00Z,27.4847,-97.3181,0.83,1111122 
TCOON,ioos:station:TCOON:013:1,2016-01-15T03:24:00Z,27.4847,-97.3181,0.832,1111122 
TCOON,ioos:station:TCOON:013:1,2016-01-15T04:18:00Z,27.4847,-97.3181,0.837,1111122 
TCOON,ioos:station:TCOON:013:1,2016-01-15T05:18:00Z,27.4847,-97.3181,0.843,1111122 
TCOON,ioos:station:TCOON:013:1,2016-01-15T06:18:00Z,27.4847,-97.3181,0.848,1111122 
TCOON,ioos:station:TCOON:013:1,2016-01-15T07:18:00Z,27.4847,-97.3181,0.855,1111122 
TCOON,ioos:station:TCOON:013:1,2016-01-15T08:18:00Z,27.4847,-97.3181,0.861,1111122 
TCOON,ioos:station:TCOON:013:1,2016-01-15T09:30:00Z,27.4847,-97.3181,0.863,1111122 
TCOON,ioos:station:TCOON:013:1,2016-01-15T10:18:00Z,27.4847,-97.3181,0.861,1111122 
TCOON,ioos:station:TCOON:013:1,2016-01-15T11:12:00Z,27.4847,-97.3181,0.858,1111122 
TCOON,ioos:station:TCOON:013:1,2016-01-15T12:18:00Z,27.4847,-97.3181,0.847,1111122 
TCOON,ioos:station:TCOON:013:1,2016-01-15T14:24:00Z,27.4847,-97.3181,0.835,1111122 
TCOON,ioos:station:TCOON:013:1,2016-01-15T15:30:00Z,27.4847,-97.3181,0.838,1111122 
TCOON,ioos:station:TCOON:013:1,2016-01-15T16:24:00Z,27.4847,-97.3181,0.835,1111122 
TCOON,ioos:station:TCOON:013:1,2016-01-15T17:18:00Z,27.4847,-97.3181,0.835,1111122 
TCOON,ioos:station:TCOON:013:1,2016-01-15T18:18:00Z,27.4847,-97.3181,0.831,1111122 
TCOON,ioos:station:TCOON:013:1,2016-01-15T19:24:00Z,27.4847,-97.3181,0.825,1111122 
TCOON,ioos:station:TCOON:013:1,2016-01-15T20:24:00Z,27.4847,-97.3181,0.815,1111122 
TCOON,ioos:station:TCOON:013:1,2016-01-15T21:42:00Z,27.4847,-97.3181,0.799,1111122 
TCOON,ioos:station:TCOON:013:1,2016-01-15T22:18:00Z,27.4847,-97.3181,0.796,1111122 
TCOON,ioos:station:TCOON:013:1,2016-01-15T23:18:00Z,27.4847,-97.3181,0.792,1111122 
TCOON,ioos:station:TCOON:013:1,2016-01-16T00:18:00Z,27.4847,-97.3181,0.795,1111122 
TCOON,ioos:station:TCOON:013:1,2016-01-16T01:18:00Z,27.4847,-97.3181,0.795,1111122 
TCOON,ioos:station:TCOON:013:1,2016-01-16T02:18:00Z,27.4847,-97.3181,0.797,1111122 
TCOON,ioos:station:TCOON:013:1,2016-01-16T03:30:00Z,27.4847,-97.3181,0.803,1111122 
TCOON,ioos:station:TCOON:013:1,2016-01-16T04:18:00Z,27.4847,-97.3181,0.807,1111122 
TCOON,ioos:station:TCOON:013:1,2016-01-16T05:18:00Z,27.4847,-97.3181,0.812,1111122 
TCOON,ioos:station:TCOON:013:1,2016-01-16T06:24:00Z,27.4847,-97.3181,0.815,1111122 
TCOON,ioos:station:TCOON:013:1,2016-01-16T07:18:00Z,27.4847,-97.3181,0.819,1111122 
TCOON,ioos:station:TCOON:013:1,2016-01-16T08:18:00Z,27.4847,-97.3181,0.825,1111122 
TCOON,ioos:station:TCOON:013:1,2016-01-16T09:30:00Z,27.4847,-97.3181,0.83,1111122 
TCOON,ioos:station:TCOON:013:1,2016-01-16T10:18:00Z,27.4847,-97.3181,0.826,1111122 
TCOON,ioos:station:TCOON:013:1,2016-01-16T11:18:00Z,27.4847,-97.3181,0.824,1111122 
TCOON,ioos:station:TCOON:013:1,2016-01-16T12:18:00Z,27.4847,-97.3181,0.815,1111122 
TCOON,ioos:station:TCOON:013:1,2016-01-16T13:18:00Z,27.4847,-97.3181,0.81,1111122 
TCOON,ioos:station:TCOON:013:1,2016-01-16T14:18:00Z,27.4847,-97.3181,0.804,1111122 
TCOON,ioos:station:TCOON:013:1,2016-01-16T15:24:00Z,27.4847,-97.3181,0.798,1111122 
TCOON,ioos:station:TCOON:013:1,2016-01-16T16:18:00Z,27.4847,-97.3181,0.802,1111122 
TCOON,ioos:station:TCOON:013:1,2016-01-16T17:36:00Z,27.4847,-97.3181,0.817,1111122 
TCOON,ioos:station:TCOON:013:1,2016-01-16T18:18:00Z,27.4847,-97.3181,0.815,1111122 
TCOON,ioos:station:TCOON:013:1,2016-01-16T19:18:00Z,27.4847,-97.3181,0.777,1111122 
TCOON,ioos:station:TCOON:013:1,2016-01-16T20:18:00Z,27.4847,-97.3181,0.785,1111122 
TCOON,ioos:station:TCOON:013:1,2016-01-16T21:18:00Z,27.4847,-97.3181,0.791,1111122 
TCOON,ioos:station:TCOON:013:1,2016-01-16T22:18:00Z,27.4847,-97.3181,0.799,1111122 
TCOON,ioos:station:TCOON:013:1,2016-01-16T23:24:00Z,27.4847,-97.3181,0.796,1111122 
TCOON,ioos:station:TCOON:013:1,2016-01-17T00:18:00Z,27.4847,-97.3181,0.79,1111122 
TCOON,ioos:station:TCOON:013:1,2016-01-17T01:24:00Z,27.4847,-97.3181,0.774,1111122 
TCOON,ioos:station:TCOON:013:1,2016-01-17T02:18:00Z,27.4847,-97.3181,0.771,1111122 
TCOON,ioos:station:TCOON:013:1,2016-01-17T03:18:00Z,27.4847,-97.3181,0.784,1111122 
TCOON,ioos:station:TCOON:013:1,2016-01-17T04:18:00Z,27.4847,-97.3181,0.778,1111122 
TCOON,ioos:station:TCOON:013:1,2016-01-17T05:30:00Z,27.4847,-97.3181,0.786,1111122 
TCOON,ioos:station:TCOON:013:1,2016-01-17T06:48:00Z,27.4847,-97.3181,0.794,1111122 
TCOON,ioos:station:TCOON:013:1,2016-01-17T08:18:00Z,27.4847,-97.3181,0.787,1111122 
TCOON,ioos:station:TCOON:013:1,2016-01-17T09:42:00Z,27.4847,-97.3181,0.801,1111122 
TCOON,ioos:station:TCOON:013:1,2016-01-17T10:24:00Z,27.4847,-97.3181,0.808,1111122 
TCOON,ioos:station:TCOON:013:1,2016-01-17T11:18:00Z,27.4847,-97.3181,0.814,1111122 
TCOON,ioos:station:TCOON:013:1,2016-01-17T12:18:00Z,27.4847,-97.3181,0.807,1111122 
TCOON,ioos:station:TCOON:013:1,2016-01-17T13:18:00Z,27.4847,-97.3181,0.809,1111122 
TCOON,ioos:station:TCOON:013:1,2016-01-17T14:18:00Z,27.4847,-97.3181,0.801,1111122 
TCOON,ioos:station:TCOON:013:1,2016-01-17T15:18:00Z,27.4847,-97.3181,0.798,1111122 
TCOON,ioos:station:TCOON:013:1,2016-01-17T16:18:00Z,27.4847,-97.3181,0.8,1111122 
TCOON,ioos:station:TCOON:013:1,2016-01-17T17:18:00Z,27.4847,-97.3181,0.796,1111122 
TCOON,ioos:station:TCOON:013:1,2016-01-17T18:18:00Z,27.4847,-97.3181,0.79,1111122 
TCOON,ioos:station:TCOON:013:1,2016-01-17T19:18:00Z,27.4847,-97.3181,0.79,1111122 
TCOON,ioos:station:TCOON:013:1,2016-01-17T20:18:00Z,27.4847,-97.3181,0.79,1111122 
TCOON,ioos:station:TCOON:013:1,2016-01-17T21:18:00Z,27.4847,-97.3181,0.799,1111122 
TCOON,ioos:station:TCOON:013:1,2016-01-17T22:18:00Z,27.4847,-97.3181,0.805,1111122 
TCOON,ioos:station:TCOON:013:1,2016-01-17T23:18:00Z,27.4847,-97.3181,0.801,1111122 
TCOON,ioos:station:TCOON:013:1,2016-01-18T00:48:00Z,27.4847,-97.3181,0.801,1111122 
TCOON,ioos:station:TCOON:013:1,2016-01-18T01:18:00Z,27.4847,-97.3181,0.8,1111122 
TCOON,ioos:station:TCOON:013:1,2016-01-18T02:18:00Z,27.4847,-97.3181,0.8,1111122 
TCOON,ioos:station:TCOON:013:1,2016-01-18T03:18:00Z,27.4847,-97.3181,0.811,1111122 
TCOON,ioos:station:TCOON:013:1,2016-01-18T04:24:00Z,27.4847,-97.3181,0.823,1111122 
TCOON,ioos:station:TCOON:013:1,2016-01-18T05:18:00Z,27.4847,-97.3181,0.825,1111122 
TCOON,ioos:station:TCOON:013:1,2016-01-18T06:18:00Z,27.4847,-97.3181,0.826,1111122 
TCOON,ioos:station:TCOON:013:1,2016-01-18T07:18:00Z,27.4847,-97.3181,0.821,1111122 
TCOON,ioos:station:TCOON:013:1,2016-01-18T08:18:00Z,27.4847,-97.3181,0.818,1111122 
TCOON,ioos:station:TCOON:013:1,2016-01-18T09:24:00Z,27.4847,-97.3181,0.807,1111122 
TCOON,ioos:station:TCOON:013:1,2016-01-18T10:24:00Z,27.4847,-97.3181,0.806,1111122 
TCOON,ioos:station:TCOON:013:1,2016-01-18T11:18:00Z,27.4847,-97.3181,0.802,1111122 
TCOON,ioos:station:TCOON:013:1,2016-01-18T12:18:00Z,27.4847,-97.3181,0.795,1111122 
TCOON,ioos:station:TCOON:013:1,2016-01-18T13:18:00Z,27.4847,-97.3181,0.788,1111122 
TCOON,ioos:station:TCOON:013:1,2016-01-18T14:18:00Z,27.4847,-97.3181,0.779,1111122 
TCOON,ioos:station:TCOON:013:1,2016-01-18T15:18:00Z,27.4847,-97.3181,0.77,1111122 
TCOON,ioos:station:TCOON:013:1,2016-01-18T16:24:00Z,27.4847,-97.3181,0.766,1111122 
TCOON,ioos:station:TCOON:013:1,2016-01-18T17:30:00Z,27.4847,-97.3181,0.761,1111122 
TCOON,ioos:station:TCOON:013:1,2016-01-18T18:30:00Z,27.4847,-97.3181,0.76,1111122 
TCOON,ioos:station:TCOON:013:1,2016-01-18T21:36:00Z,27.4847,-97.3181,0.769,1111122 
TCOON,ioos:station:TCOON:013:1,2016-01-18T22:48:00Z,27.4847,-97.3181,0.769,1111122 
TCOON,ioos:station:TCOON:013:1,2016-01-19T00:42:00Z,27.4847,-97.3181,0.774,1111122 
TCOON,ioos:station:TCOON:013:1,2016-01-19T01:30:00Z,27.4847,-97.3181,0.775,1111122 
TCOON,ioos:station:TCOON:013:1,2016-01-19T04:24:00Z,27.4847,-97.3181,0.806,1111122 
TCOON,ioos:station:TCOON:013:1,2016-01-19T05:18:00Z,27.4847,-97.3181,0.818,1111122 
TCOON,ioos:station:TCOON:013:1,2016-01-19T06:18:00Z,27.4847,-97.3181,0.827,1111122 
TCOON,ioos:station:TCOON:013:1,2016-01-19T07:18:00Z,27.4847,-97.3181,0.833,1111122 
TCOON,ioos:station:TCOON:013:1,2016-01-19T08:30:00Z,27.4847,-97.3181,0.836,1111122 
TCOON,ioos:station:TCOON:013:1,2016-01-19T09:36:00Z,27.4847,-97.3181,0.834,1111122 
TCOON,ioos:station:TCOON:013:1,2016-01-19T10:24:00Z,27.4847,-97.3181,0.83,1111122 
TCOON,ioos:station:TCOON:013:1,2016-01-19T11:24:00Z,27.4847,-97.3181,0.827,1111122 
TCOON,ioos:station:TCOON:013:1,2016-01-19T12:18:00Z,27.4847,-97.3181,0.822,1111122 
TCOON,ioos:station:TCOON:013:1,2016-01-19T13:18:00Z,27.4847,-97.3181,0.818,1111122 
TCOON,ioos:station:TCOON:013:1,2016-01-19T14:18:00Z,27.4847,-97.3181,0.812,1111122 
TCOON,ioos:station:TCOON:013:1,2016-01-19T15:24:00Z,27.4847,-97.3181,0.801,1111122 
TCOON,ioos:station:TCOON:013:1,2016-01-19T16:24:00Z,27.4847,-97.3181,0.796,1111122 
TCOON,ioos:station:TCOON:013:1,2016-01-19T17:18:00Z,27.4847,-97.3181,0.794,1111122 
TCOON,ioos:station:TCOON:013:1,2016-01-19T18:18:00Z,27.4847,-97.3181,0.79,1111122 
TCOON,ioos:station:TCOON:013:1,2016-01-19T19:24:00Z,27.4847,-97.3181,0.785,1111122 
TCOON,ioos:station:TCOON:013:1,2016-01-19T20:24:00Z,27.4847,-97.3181,0.779,1111122 
TCOON,ioos:station:TCOON:013:1,2016-01-19T21:24:00Z,27.4847,-97.3181,0.777,1111122 
TCOON,ioos:station:TCOON:013:1,2016-01-19T22:30:00Z,27.4847,-97.3181,0.772,1111122 
TCOON,ioos:station:TCOON:013:1,2016-01-20T01:42:00Z,27.4847,-97.3181,0.772,1111122 
TCOON,ioos:station:TCOON:013:1,2016-01-20T03:42:00Z,27.4847,-97.3181,0.78,1111122 
TCOON,ioos:station:TCOON:013:1,2016-01-20T04:42:00Z,27.4847,-97.3181,0.785,1111122 
TCOON,ioos:station:TCOON:013:1,2016-01-20T05:42:00Z,27.4847,-97.3181,0.788,1111122 
TCOON,ioos:station:TCOON:013:1,2016-01-20T08:00:00Z,27.4847,-97.3181,0.799,1111122 
TCOON,ioos:station:TCOON:013:1,2016-01-20T09:54:00Z,27.4847,-97.3181,0.801,1111122 
TCOON,ioos:station:TCOON:013:1,2016-01-20T22:12:00Z,27.4847,-97.3181,0.736,1111122 
TCOON,ioos:station:TCOON:013:1,2016-01-21T00:54:00Z,27.4847,-97.3181,0.734,1111122 
TCOON,ioos:station:TCOON:013:1,2016-01-21T03:12:00Z,27.4847,-97.3181,0.746,1111122 
TCOON,ioos:station:TCOON:013:1,2016-01-21T04:36:00Z,27.4847,-97.3181,0.76,1111122 
TCOON,ioos:station:TCOON:013:1,2016-01-21T05:42:00Z,27.4847,-97.3181,0.764,1111122 
TCOON,ioos:station:TCOON:013:1,2016-01-21T06:48:00Z,27.4847,-97.3181,0.773,1111122 
TCOON,ioos:station:TCOON:013:1,2016-01-22T14:42:00Z,27.4847,-97.3181,0.728,1111122 
TCOON,ioos:station:TCOON:013:1,2016-01-22T15:24:00Z,27.4847,-97.3181,0.721,1111122 
TCOON,ioos:station:TCOON:013:1,2016-01-22T16:24:00Z,27.4847,-97.3181,0.718,1111122 
TCOON,ioos:station:TCOON:013:1,2016-01-22T17:18:00Z,27.4847,-97.3181,0.705,1111122 
TCOON,ioos:station:TCOON:013:1,2016-01-22T18:18:00Z,27.4847,-97.3181,0.693,1111122 
TCOON,ioos:station:TCOON:013:1,2016-01-22T19:18:00Z,27.4847,-97.3181,0.691,1111122 
TCOON,ioos:station:TCOON:013:1,2016-01-22T20:18:00Z,27.4847,-97.3181,0.674,1111122 
TCOON,ioos:station:TCOON:013:1,2016-01-22T21:18:00Z,27.4847,-97.3181,0.666,1111122 
TCOON,ioos:station:TCOON:013:1,2016-01-22T22:18:00Z,27.4847,-97.3181,0.659,1111122 
TCOON,ioos:station:TCOON:013:1,2016-01-22T23:18:00Z,27.4847,-97.3181,0.639,1111122 
TCOON,ioos:station:TCOON:013:1,2016-01-23T00:18:00Z,27.4847,-97.3181,0.631,1111122 
TCOON,ioos:station:TCOON:013:1,2016-01-23T01:18:00Z,27.4847,-97.3181,0.628,1111122 
TCOON,ioos:station:TCOON:013:1,2016-01-23T02:18:00Z,27.4847,-97.3181,0.628,1111122 
TCOON,ioos:station:TCOON:013:1,2016-01-23T03:18:00Z,27.4847,-97.3181,0.629,1111122 
TCOON,ioos:station:TCOON:013:1,2016-01-23T04:18:00Z,27.4847,-97.3181,0.634,1111122 
TCOON,ioos:station:TCOON:013:1,2016-01-23T05:18:00Z,27.4847,-97.3181,0.63,1111122 
TCOON,ioos:station:TCOON:013:1,2016-01-23T06:18:00Z,27.4847,-97.3181,0.622,1111122 
TCOON,ioos:station:TCOON:013:1,2016-01-23T07:18:00Z,27.4847,-97.3181,0.606,1111122 
TCOON,ioos:station:TCOON:013:1,2016-01-23T08:18:00Z,27.4847,-97.3181,0.6,1111122 
TCOON,ioos:station:TCOON:013:1,2016-01-23T09:30:00Z,27.4847,-97.3181,0.601,1111122 
TCOON,ioos:station:TCOON:013:1,2016-01-23T10:18:00Z,27.4847,-97.3181,0.601,1111122 
TCOON,ioos:station:TCOON:013:1,2016-01-23T11:18:00Z,27.4847,-97.3181,0.602,1111122 
TCOON,ioos:station:TCOON:013:1,2016-01-23T12:18:00Z,27.4847,-97.3181,0.602,1111122 
TCOON,ioos:station:TCOON:013:1,2016-01-23T13:18:00Z,27.4847,-97.3181,0.596,1111122 
TCOON,ioos:station:TCOON:013:1,2016-01-23T14:18:00Z,27.4847,-97.3181,0.592,1111122 
TCOON,ioos:station:TCOON:013:1,2016-01-23T15:18:00Z,27.4847,-97.3181,0.591,1111122 
TCOON,ioos:station:TCOON:013:1,2016-01-23T16:18:00Z,27.4847,-97.3181,0.587,1111122 
TCOON,ioos:station:TCOON:013:1,2016-01-23T17:18:00Z,27.4847,-97.3181,0.589,1111122 